Time,TemperatureF,DewpointF,PressureIn,WindDirection,WindDirectionDegrees,WindSpeedMPH,WindSpeedGustMPH,Humidity,HourlyPrecipIn,Conditions,Clouds,dailyrainin,SoftwareType,DateUTC
2018-04-22 00:05:00,54.0,34.0,29.17,North,1,5.0,8.0,46,-99.99,,,-99.99,,2018-04-22 05:05:00,
2018-04-22 00:35:00,53.0,35.0,29.16,North,9,4.0,8.0,50,-99.99,,,-99.99,,2018-04-22 05:35:00,
2018-04-22 01:05:00,53.0,36.0,29.15,North,7,4.0,6.0,52,-99.99,,,-99.99,,2018-04-22 06:05:00,
2018-04-22 01:35:00,53.0,36.0,29.16,NNE,22,3.0,5.0,52,-99.99,,,-99.99,,2018-04-22 06:35:00,
2018-04-22 02:06:00,52.0,35.0,29.15,North,360,4.0,7.0,52,-99.99,,,-99.99,,2018-04-22 07:06:00,
2018-04-22 02:35:00,53.0,35.0,29.14,North,360,4.0,6.0,51,-99.99,,,-99.99,,2018-04-22 07:35:00,
2018-04-22 03:05:00,53.0,36.0,29.13,North,1,5.0,7.0,52,-99.99,,,-99.99,,2018-04-22 08:05:00,
2018-04-22 03:35:00,53.0,36.0,29.13,North,360,3.0,4.0,52,-99.99,,,-99.99,,2018-04-22 08:35:00,
2018-04-22 04:05:00,52.0,35.0,29.12,North,360,3.0,4.0,52,-99.99,,,-99.99,,2018-04-22 09:05:00,
2018-04-22 04:35:00,53.0,36.0,29.12,NNE,14,4.0,6.0,53,-99.99,,,-99.99,,2018-04-22 09:35:00,
2018-04-22 05:05:00,52.0,37.0,29.12,NNE,33,3.0,5.0,56,-99.99,,,-99.99,,2018-04-22 10:05:00,
2018-04-22 05:35:00,52.0,37.0,29.11,NE,41,4.0,6.0,56,-99.99,,,-99.99,,2018-04-22 10:35:00,
2018-04-22 06:05:00,51.0,38.0,29.12,North,9,2.0,4.0,61,-99.99,,,-99.99,,2018-04-22 11:05:00,
2018-04-22 06:35:00,50.0,38.0,29.12,North,10,3.0,8.0,64,-99.99,,,-99.99,,2018-04-22 11:35:00,
2018-04-22 07:05:00,50.0,39.0,29.13,North,360,3.0,5.0,65,-99.99,,,-99.99,,2018-04-22 12:05:00,
2018-04-22 07:35:00,50.0,39.0,29.14,North,11,4.0,7.0,65,-99.99,,,-99.99,,2018-04-22 12:35:00,
2018-04-22 08:06:00,50.0,39.0,29.15,North,11,5.0,7.0,65,-99.99,,,-99.99,,2018-04-22 13:06:00,
2018-04-22 08:35:00,48.0,40.0,29.15,North,9,4.0,7.0,75,-99.99,,,-99.99,,2018-04-22 13:35:00,
2018-04-22 09:05:00,48.0,41.0,29.15,North,11,5.0,7.0,78,-99.99,,,-99.99,,2018-04-22 14:05:00,
2018-04-22 09:35:00,49.0,41.0,29.16,North,358,4.0,6.0,73,-99.99,,,-99.99,,2018-04-22 14:35:00,
2018-04-22 10:05:00,49.0,42.0,29.17,NNE,17,3.0,5.0,77,-99.99,,,-99.99,,2018-04-22 15:05:00,
2018-04-22 10:35:00,47.0,44.0,29.16,NNE,15,4.0,6.0,88,-99.99,,,-99.99,,2018-04-22 15:35:00,
2018-04-22 11:05:00,50.0,47.0,29.17,North,8,5.0,7.0,88,-99.99,,,-99.99,,2018-04-22 16:05:00,
2018-04-22 11:35:00,51.0,47.0,29.16,NNE,16,5.0,9.0,85,-99.99,,,-99.99,,2018-04-22 16:35:00,